Temperature
19 19 20 20 17 15 17 18 19 20 21 22 22 22 20 19 19 19 20 19 19 18 17 16 15 14 14 13 12 12 12 12 11 11 11 11 10 10 10 10 10 10 10 10 10 10 11 11 11
19 19 20 19 15 16 17 19 19 21 22 22 22 22 20 20 20 20 20 19 19 18 18 17 15 14 14 13 12 12 12 11 11 11 11 10 10 10 10 10 10 10 11 11 11 11 11 11 11
19 19 20 16 16 16 19 19 19 21 22 22 22 21 20 19 19 19 19 19 18 18 17 17 16 15 14 13 12 12 11 11 11 11 10 10 10 10 10 10 11 11 11 11 11 11 11 12 12
20 20 19 16 18 18 19 19 20 21 22 22 22 20 19 19 19 19 19 19 18 18 17 17 16 14 14 13 12 11 11 11 11 11 10 10 10 10 10 11 11 11 11 11 11 12 12 12 12
20 19 16 16 18 19 18 20 21 19 20 21 21 19 18 18 19 19 19 19 18 18 17 16 15 14 13 13 12 11 11 11 10 10 10 10 10 10 11 11 11 11 11 11 12 12 12 12 12
20 17 15 16 18 19 19 21 21 20 20 21 20 18 18 18 18 18 18 18 18 17 17 16 15 14 13 12 12 11 11 11 10 10 10 10 10 10 10 11 11 11 11 11 11 11 11 12 11
19 15 16 17 18 19 20 21 21 20 20 20 20 18 18 18 18 18 18 17 17 17 16 16 15 14 13 12 12 11 11 10 10 10 10 10 10 10 10 10 10 10 11 11 11 11 11 11 11
20 15 17 16 18 19 19 21 21 21 20 20 20 18 18 18 18 17 17 17 16 16 16 15 14 14 13 12 12 11 11 10 10 10 10 10 10 10 10 10 10 10 10 10 10 10 11 11 11
20 15 16 18 18 19 19 20 20 20 20 19 19 18 18 18 17 17 17 16 16 15 15 14 14 13 13 12 11 11 11 10 10 10 10 10 10 10 10 9 9 9 10 10 10 10 10 10 10
19 15 18 19 19 19 19 19 19 19 18 18 18 18 17 18 17 17 16 16 15 15 14 14 14 13 13 12 11 11 11 10 10 10 10 9 9 9 9 9 9 9 9 9 9 9 9 9 10
19 17 18 19 19 19 19 19 19 18 17 17 17 17 17 17 17 17 16 16 16 15 14 14 13 13 12 12 11 11 10 10 10 10 9 9 9 9 9 9 9 9 9 9 9 9 9 9 9
19 19 19 19 20 19 19 18 18 18 18 18 18 17 17 17 17 16 16 16 15 15 14 14 13 13 12 12 11 11 10 10 10 10 9 9 9 9 9 9 8 8 8 8 8 8 8 8 8
18 18 19 20 19 19 19 18 17 17 17 17 17 17 17 16 16 16 16 15 15 15 14 14 13 12 12 11 11 11 10 10 10 10 9 9 9 9 9 8 8 8 8 8 8 8 8 8 8
19 19 19 19 19 19 18 17 17 17 17 17 17 16 16 16 16 16 16 15 15 15 14 13 13 12 12 11 11 11 10 10 10 10 9 9 9 9 9 8 8 8 8 8 8 7 7 7 7
19 17 16 17 18 18 18 16 15 17 17 17 16 16 16 16 16 16 15 15 15 15 14 13 13 12 12 11 11 11 10 10 10 9 9 9 9 9 8 8 8 8 8 7 7 7 7 7 7
17 16 16 16 17 17 17 16 16 17 17 16 15 15 15 15 15 15 15 15 15 14 14 13 13 12 12 11 11 10 10 10 10 9 9 9 9 8 8 8 8 8 7 7 7 7 7 7 7
15 15 16 16 17 16 16 15 15 17 16 15 15 15 15 15 15 15 15 15 14 14 14 13 13 12 12 11 11 10 10 10 10 9 9 9 9 8 8 8 8 8 8 7 7 7 7 7 7
15 15 16 16 17 16 15 14 14 16 16 15 15 14 14 14 14 14 14 14 14 14 13 13 12 12 11 11 11 10 10 10 10 9 9 9 9 9 8 8 8 8 7 7 7 7 6 6 6
16 16 15 15 16 16 15 14 14 15 14 13 13 14 14 14 14 14 14 14 14 13 13 13 12 12 11 11 11 11 10 10 10 10 9 9 9 9 8 8 8 8 7 7 7 6 6 6 6
16 16 15 15 16 15 14 14 14 14 13 14 14 13 14 13 13 13 13 13 13 13 13 13 12 12 12 11 11 10 10 10 10 9 9 9 9 8 8 8 8 7 7 7 6 6 6 6 5
16 15 15 15 15 15 15 14 14 14 14 14 14 14 14 14 14 13 13 13 13 13 13 13 12 12 12 11 11 10 10 10 10 10 9 9 8 8 8 7 7 7 6 6 6 5 5 5 5
15 16 15 16 14 13 14 12 13 13 12 12 12 13 13 14 14 14 13 13 13 13 12 12 12 12 11 11 11 10 10 10 9 9 9 8 8 7 7 7 6 6 6 5 5 5 4 4 4
15 16 16 16 14 13 12 13 13 12 12 11 11 12 13 14 14 14 13 13 12 12 12 12 12 11 11 11 10 10 10 9 9 8 8 8 7 7 7 6 6 6 5 5 4 4 4 3 3
15 15 13 11 11 12 12 11 12 11 12 12 11 12 13 13 13 13 13 12 12 12 12 11 11 11 11 10 10 10 9 9 8 8 7 7 7 7 6 6 5 5 4 4 4 4 3 3 3
15 13 12 13 11 11 12 12 13 13 12 12 12 12 12 13 13 13 12 12 12 12 11 11 11 11 10 10 9 9 9 8 8 7 7 6 6 6 6 5 5 4 4 4 3 3 3 2 2
13 13 12 13 12 12 13 12 13 13 13 14 14 13 12 12 13 13 13 12 12 11 11 11 10 10 10 9 9 8 8 7 7 6 6 6 5 5 5 4 4 4 3 3 2 2 2 2 1
13 12 12 12 12 12 12 12 13 13 12 12 12 12 12 12 13 13 13 12 12 11 11 10 10 10 9 9 8 8 7 7 6 6 5 5 5 4 4 4 3 3 3 2 2 1 1 1 1
14 12 11 12 12 12 12 13 13 14 13 11 10 11 12 12 12 13 12 12 11 11 10 10 9 9 8 8 8 7 7 6 6 5 5 4 4 4 3 3 3 2 2 2 1 1 1 0 0
13 13 12 11 10 11 11 13 13 13 12 11 10 12 12 12 13 12 12 11 11 10 10 9 9 8 8 7 7 7 6 6 5 5 4 4 3 3 3 2 2 2 1 1 0 0 -0 -1 -1
12 12 11 11 11 10 10 12 13 12 12 12 12 13 13 13 13 12 12 11 10 10 9 9 8 8 7 7 6 6 5 5 4 4 4 3 3 2 2 2 1 1 1 0 -0 -1 -1 -1 -2
Wind_Speed
7 5 3 4 6 5 2 4 3 3 2 1 2 6 6 4 3 3 2 10 11 15 22 22 21 19 17 16 15 14 13 13 12 12 11 11 11 11 11 11 11 11 10 11 11 11 11 11 11
4 3 4 5 5 3 3 2 5 4 4 2 3 5 6 2 0 4 3 8 15 20 21 21 22 20 18 16 15 14 13 12 11 11 11 10 10 10 10 10 9 9 9 9 10 10 10 10 10
4 2 4 5 3 4 3 3 5 2 2 3 3 5 5 1 0 3 4 12 15 17 20 22 23 21 19 17 16 15 14 12 11 10 10 9 9 9 9 9 8 8 8 8 8 8 8 8 8
4 5 5 5 1 3 6 6 5 3 4 5 3 5 4 3 2 3 7 13 13 14 20 23 23 21 19 18 16 15 14 12 11 10 10 9 9 9 8 7 7 7 6 6 6 6 6 7 6
4 5 5 3 3 3 3 3 5 6 3 4 4 4 2 7 3 5 9 12 14 12 19 23 23 21 20 18 17 15 14 13 11 10 10 10 9 8 7 6 5 5 5 4 4 4 5 4 4
5 5 4 2 2 1 2 0 5 6 3 3 4 4 1 4 2 4 7 10 12 14 18 21 23 22 20 18 17 16 15 13 12 11 10 9 8 8 7 5 5 4 3 2 2 2 2 3 3
4 4 1 2 1 1 3 2 5 5 4 2 2 5 2 4 3 2 5 8 10 15 16 17 20 21 20 19 18 17 15 13 12 11 10 9 8 8 7 6 5 3 2 1 0 1 2 2 3
5 4 3 3 2 2 6 4 2 3 1 2 4 6 4 5 2 4 7 7 9 10 12 14 16 18 18 18 18 17 15 14 13 11 10 9 9 8 8 7 6 5 4 3 3 3 4 4 4
5 5 1 2 1 1 3 3 5 2 4 4 4 2 3 2 3 6 6 5 7 9 8 11 13 15 16 16 16 17 15 14 13 12 11 10 9 9 8 8 8 7 6 6 6 6 6 7 7
5 2 3 3 3 4 1 1 3 3 4 3 3 3 3 4 4 5 6 8 9 10 10 8 11 13 14 13 14 14 14 13 12 12 12 11 10 10 9 10 10 9 9 8 8 8 9 8 8
4 5 4 3 3 4 1 1 2 3 1 3 3 3 2 2 3 4 4 6 8 10 10 9 10 13 13 11 11 11 11 11 11 12 12 11 10 9 9 10 10 10 10 9 10 10 9 9 10
2 3 3 3 3 3 3 1 1 2 4 4 5 5 4 3 2 2 4 5 6 8 9 9 10 11 12 12 10 10 9 9 9 11 12 10 8 7 8 9 10 10 10 9 10 10 12 12 13
1 3 2 3 4 3 2 2 2 3 4 3 5 5 5 3 1 1 2 3 5 7 8 9 9 9 10 10 9 9 9 9 10 10 11 11 8 7 8 8 10 11 11 10 10 10 11 11 12
3 3 4 5 4 3 4 2 2 5 4 5 6 5 4 4 2 2 2 3 4 5 7 7 8 9 9 7 6 7 7 7 7 8 9 10 10 8 7 7 8 9 11 12 12 11 10 10 10
1 3 7 5 3 3 3 3 5 6 6 6 6 5 5 4 5 3 2 3 4 5 6 7 8 8 8 7 7 7 7 6 5 6 7 8 8 8 7 6 6 9 10 10 9 9 9 7 7
3 3 4 6 3 4 5 6 6 5 9 8 6 5 5 4 4 3 4 4 5 6 7 6 7 7 7 6 6 6 5 5 4 4 5 6 6 6 6 5 5 8 8 7 5 4 4 6 6
3 1 4 6 3 4 5 7 6 5 9 9 8 6 6 5 4 4 4 5 6 6 7 7 7 7 6 6 6 5 4 3 2 2 2 3 4 5 5 5 6 7 6 5 4 4 4 5 6
4 4 4 6 4 5 6 9 8 6 9 10 9 8 6 6 4 4 5 6 6 6 7 7 7 6 6 5 4 4 3 3 2 1 1 2 3 4 4 5 6 6 3 4 4 5 4 5 6
5 5 6 7 5 5 9 10 10 8 8 10 9 9 8 7 4 4 5 6 7 6 7 6 6 5 5 3 3 2 1 1 1 2 3 3 5 5 5 5 5 4 3 5 5 4 5 4 3
5 5 5 5 3 3 7 10 9 9 11 14 15 13 11 8 6 5 5 5 5 5 5 6 6 5 5 4 3 2 2 1 1 3 4 5 6 6 5 5 4 4 3 5 5 4 4 4 2
5 5 5 5 4 4 4 8 6 5 6 8 11 12 12 13 11 8 6 5 5 5 4 5 5 5 5 4 3 3 3 3 2 2 3 5 7 7 7 6 5 4 3 5 6 5 5 5 4
6 6 5 3 0 5 1 6 8 5 5 9 11 11 12 11 10 9 8 6 5 4 4 5 5 5 4 5 4 3 2 0 2 2 3 5 7 7 8 7 6 5 3 5 6 5 4 5 5
7 4 2 1 2 3 3 5 9 3 7 11 12 13 13 12 12 11 9 8 6 5 5 5 5 4 4 4 5 4 2 1 1 2 3 4 5 7 8 8 6 5 4 5 6 6 6 5 6
4 4 6 5 4 4 6 7 8 6 10 10 12 13 13 12 11 10 9 7 6 5 4 4 5 3 3 4 4 3 2 1 2 3 3 4 4 4 7 8 7 6 5 6 7 7 8 7 8
5 5 3 3 2 7 5 6 10 8 8 11 16 17 14 13 12 11 11 9 8 7 6 5 5 3 2 3 2 2 2 2 2 3 3 4 4 4 6 6 6 6 7 8 7 7 8 8 8
6 8 7 5 5 6 3 7 8 6 5 6 10 12 12 12 12 13 13 11 9 8 7 6 5 4 3 2 2 1 1 1 2 3 3 4 4 5 6 7 7 8 9 9 7 7 8 8 8
7 6 7 5 2 4 7 8 8 2 3 3 8 11 14 14 13 13 12 11 10 9 8 7 6 4 3 3 2 1 1 2 3 4 4 4 5 5 6 7 7 8 9 8 7 7 9 8 8
6 7 5 5 4 5 7 6 5 5 5 5 9 12 13 12 12 12 11 11 10 8 7 6 6 5 4 3 2 2 2 3 3 4 5 6 6 5 7 7 8 8 8 8 8 8 8 9 9
6 5 5 5 5 5 5 7 6 7 8 10 11 12 14 15 14 12 11 9 9 7 7 6 5 4 3 3 2 2 3 3 4 4 6 7 7 7 8 8 9 9 9 9 9 9 10 11 11
8 9 9 6 6 6 4 8 6 6 7 8 10 10 11 12 11 10 10 9 8 7 6 6 5 4 4 3 3 3 4 4 5 6 7 7 8 8 8 9 9 10 10 10 10 11 11 11 12
Wind_Direction
345 356 65 53 54 50 341 291 169 134 100 199 109 98 110 127 155 177 211 146 148 154 167 166 164 161 158 154 148 143 137 131 123 117 113 110 105 99 93 87 83 79 74 69 68 68 67 65 64
360 19 56 58 79 69 309 272 116 125 164 143 67 84 88 68 96 131 128 155 150 157 164 164 164 161 159 156 153 149 142 136 131 125 119 115 111 104 96 90 85 81 78 74 72 70 69 67 65
352 49 74 67 99 168 173 212 150 160 123 88 59 67 99 92 29 184 188 150 148 158 163 165 164 163 161 159 156 151 146 142 139 135 130 125 118 109 101 95 89 85 81 77 74 72 71 68 65
46 43 55 67 283 233 178 193 159 99 32 29 69 58 55 347 269 208 145 146 149 158 162 166 166 165 163 162 159 156 152 150 147 144 141 135 126 116 108 103 99 93 87 81 76 71 68 66 62
61 67 52 21 275 273 214 171 111 89 62 358 65 87 24 326 348 125 140 151 155 159 164 168 167 167 166 165 162 160 158 156 157 154 150 144 138 131 125 121 116 108 98 89 79 69 60 57 52
51 62 64 324 290 283 296 332 90 81 63 24 80 106 214 307 6 145 152 158 161 160 166 169 170 169 169 168 166 165 164 164 164 163 160 157 154 150 146 143 139 134 122 102 83 61 45 31 23
94 83 112 277 288 9 325 14 85 94 66 360 102 115 249 290 276 166 140 146 152 159 163 168 170 170 171 171 170 170 170 171 172 173 170 170 169 170 166 167 169 170 176 187 232 318 322 327 330
118 96 32 344 31 360 323 4 58 94 106 12 82 131 218 252 253 99 98 119 140 151 160 164 166 168 171 173 173 174 175 176 177 179 178 179 181 184 183 187 194 200 213 232 253 272 282 288 296
88 73 356 299 112 264 324 24 346 13 73 40 42 130 227 176 110 96 92 106 136 153 161 162 162 164 168 172 175 177 180 181 182 181 182 184 187 192 195 198 209 217 226 241 258 271 278 281 283
87 127 237 242 188 186 225 41 330 35 34 35 42 22 40 86 107 133 147 153 159 168 173 168 164 164 167 172 176 178 181 184 184 183 185 186 192 200 204 210 219 229 236 247 259 266 272 276 273
147 188 226 245 198 173 167 325 349 111 264 211 184 173 144 92 108 147 171 173 174 170 172 176 170 166 166 167 170 175 178 181 185 188 191 192 196 206 212 217 225 234 242 250 259 269 270 265 262
214 242 214 218 211 180 184 194 4 176 213 197 165 152 140 129 157 176 175 170 162 160 172 174 170 166 167 165 169 173 175 180 187 194 196 193 194 204 210 214 222 228 237 244 252 257 261 262 261
234 262 275 247 233 221 188 197 191 234 213 149 119 105 114 119 139 175 159 148 139 156 168 169 164 163 163 161 166 172 177 183 191 194 197 196 197 205 210 217 222 229 236 240 246 251 255 258 260
233 258 286 271 247 218 186 226 167 238 177 130 112 107 99 89 96 80 81 124 139 149 157 159 159 158 154 155 159 165 171 179 185 196 203 202 204 208 212 221 229 237 241 242 244 247 249 253 256
292 331 323 288 224 208 140 290 231 215 145 129 124 115 92 74 71 77 93 127 140 141 137 142 150 144 143 145 147 151 159 166 178 198 209 209 211 214 219 223 232 243 249 249 250 255 255 258 259
29 23 316 296 190 163 145 253 253 194 147 147 145 129 107 80 68 64 73 98 113 120 119 128 140 136 136 136 136 138 152 162 180 200 215 223 226 227 225 230 241 252 252 247 245 249 258 261 262
22 303 271 294 221 174 186 242 246 187 157 163 165 154 134 107 78 64 70 89 103 111 113 113 120 129 131 125 125 122 122 130 160 187 220 243 253 255 247 250 259 266 261 255 257 257 252 267 270
244 250 264 268 256 192 221 247 253 218 179 175 173 165 152 137 129 104 83 86 93 96 100 103 104 110 112 102 91 79 72 65 64 57 328 308 300 296 284 274 276 278 273 273 269 269 267 263 271
217 236 263 260 252 208 238 251 251 226 187 178 180 175 167 160 147 110 94 91 90 88 93 96 103 106 109 104 108 104 88 34 15 348 325 313 308 306 296 287 289 287 272 270 271 272 279 278 276
217 249 270 285 287 225 260 265 253 220 199 189 184 182 174 162 149 131 111 98 99 107 103 105 110 112 112 115 119 123 120 85 308 326 332 323 317 311 301 289 284 284 282 288 284 273 280 281 267
231 227 240 256 312 320 308 300 273 245 199 191 188 182 175 169 164 157 140 127 120 123 130 125 120 114 110 109 98 73 55 30 6 345 325 320 318 312 304 294 285 281 270 275 278 272 263 276 279
245 234 215 215 12 289 312 290 277 239 205 195 193 186 182 173 164 161 156 151 149 152 139 127 123 116 113 111 111 113 120 171 265 283 300 315 323 317 309 299 291 283 275 275 276 270 256 257 274
218 211 191 190 183 291 255 228 281 226 220 216 204 196 189 180 171 168 165 162 156 151 140 132 121 113 111 108 118 117 121 203 284 314 322 322 322 322 316 307 298 287 280 275 277 279 268 253 256
152 70 43 48 76 283 228 195 273 224 216 209 201 197 190 180 172 165 160 152 149 147 140 136 128 123 119 115 118 130 148 225 307 315 317 316 313 313 315 311 299 290 283 277 276 272 270 264 260
114 96 359 327 340 253 220 202 251 249 230 204 194 192 187 178 171 166 164 165 163 162 161 155 148 151 148 133 138 163 189 215 250 276 288 300 306 305 303 307 299 292 286 284 280 277 274 270 266
180 156 177 219 238 280 273 228 255 279 276 213 184 176 175 178 177 175 175 172 171 171 170 167 166 171 172 164 182 198 210 222 251 265 272 280 282 285 290 298 296 293 292 290 284 279 274 273 266
159 198 182 155 242 265 274 282 301 300 4 128 155 164 180 184 183 181 178 175 174 175 177 176 172 174 184 185 190 218 240 249 267 279 281 282 282 287 294 297 294 293 291 288 285 281 278 276 270
164 158 124 157 206 255 283 276 256 260 237 193 181 185 188 186 186 184 182 179 178 177 175 172 171 178 186 191 203 219 250 266 274 285 290 290 290 289 295 294 291 289 286 284 283 282 279 278 275
168 180 174 170 178 184 259 271 232 230 217 206 205 198 191 190 190 187 184 180 174 168 167 170 175 175 188 204 217 239 267 278 284 283 283 284 285 287 288 288 288 289 288 285 283 281 283 280 278
186 190 163 176 225 197 208 267 274 252 221 204 208 203 196 192 188 182 175 168 168 170 171 175 180 187 201 207 219 245 267 280 285 284 284 283 283 283 283 285 287 287 287 284 281 283 284 280 280
Height
1542 1542 1543 1545 1548 1559 1560 1553 1547 1545 1544 1543 1543 1543 1546 1549 1552 1557 1553 1551 1551 1552 1553 1554 1555 1557 1558 1559 1559 1560 1560 1561 1561 1561 1561 1561 1561 1560 1560 1560 1559 1558 1558 1558 1557 1557 1556 1556 1555
1543 1543 1545 1545 1555 1568 1562 1551 1547 1544 1543 1543 1543 1544 1546 1548 1549 1550 1550 1550 1551 1552 1552 1553 1555 1556 1558 1559 1559 1560 1561 1561 1562 1562 1562 1562 1561 1561 1561 1560 1560 1559 1559 1558 1558 1557 1557 1556 1556
1544 1544 1546 1549 1558 1564 1558 1549 1545 1543 1543 1543 1544 1545 1547 1549 1550 1550 1550 1550 1551 1552 1552 1553 1555 1556 1557 1558 1560 1560 1561 1561 1562 1562 1562 1562 1562 1562 1561 1561 1560 1560 1559 1559 1558 1558 1558 1557 1557
1545 1546 1548 1554 1556 1552 1549 1546 1543 1543 1543 1543 1544 1547 1548 1550 1550 1550 1550 1550 1551 1552 1552 1553 1555 1556 1557 1558 1559 1560 1561 1562 1562 1563 1563 1563 1563 1562 1562 1561 1561 1561 1560 1560 1559 1559 1558 1558 1558
1546 1547 1553 1560 1555 1549 1545 1543 1542 1543 1544 1545 1545 1547 1549 1550 1550 1550 1550 1550 1551 1551 1552 1553 1554 1556 1557 1558 1559 1560 1561 1562 1562 1563 1563 1563 1563 1563 1562 1562 1562 1561 1561 1560 1560 1560 1559 1559 1558
1547 1549 1561 1563 1555 1549 1546 1544 1542 1543 1545 1545 1546 1547 1549 1550 1549 1549 1549 1550 1551 1551 1552 1553 1554 1555 1557 1558 1559 1560 1561 1562 1563 1563 1564 1564 1564 1563 1563 1563 1562 1562 1561 1561 1561 1560 1560 1560 1559
1549 1554 1560 1558 1556 1551 1547 1545 1544 1544 1545 1546 1546 1547 1548 1549 1549 1549 1549 1549 1550 1551 1552 1553 1554 1555 1557 1558 1559 1560 1561 1562 1563 1563 1564 1564 1564 1564 1563 1563 1563 1562 1562 1562 1561 1561 1560 1560 1560
1548 1553 1558 1559 1556 1553 1548 1546 1545 1545 1546 1546 1546 1547 1548 1548 1548 1548 1548 1548 1549 1550 1551 1552 1553 1555 1556 1558 1559 1560 1561 1562 1563 1563 1564 1564 1564 1564 1564 1563 1563 1563 1562 1562 1561 1561 1560 1560 1560
1549 1557 1561 1556 1554 1552 1548 1546 1546 1546 1545 1546 1546 1546 1547 1547 1547 1547 1547 1547 1547 1549 1550 1552 1553 1554 1556 1557 1559 1560 1561 1562 1563 1563 1563 1564 1564 1564 1563 1563 1563 1563 1562 1562 1561 1561 1560 1560 1559
1549 1559 1555 1550 1549 1548 1547 1547 1546 1545 1545 1546 1546 1546 1546 1545 1545 1545 1545 1545 1546 1547 1549 1551 1552 1554 1555 1557 1558 1559 1561 1561 1562 1563 1563 1563 1563 1563 1563 1563 1562 1562 1562 1561 1561 1560 1559 1559 1558
1548 1552 1549 1548 1547 1547 1546 1546 1545 1545 1545 1545 1545 1545 1544 1544 1543 1543 1543 1544 1545 1546 1548 1549 1551 1553 1555 1556 1557 1559 1560 1561 1561 1562 1562 1562 1562 1562 1562 1562 1561 1561 1561 1560 1559 1559 1558 1557 1556
1548 1547 1546 1546 1546 1545 1544 1544 1544 1544 1544 1544 1544 1543 1543 1542 1542 1542 1542 1543 1544 1545 1546 1548 1550 1552 1554 1555 1557 1558 1559 1560 1560 1561 1561 1561 1561 1561 1561 1560 1560 1559 1559 1558 1558 1557 1556 1555 1554
1546 1546 1545 1544 1544 1543 1543 1543 1543 1542 1543 1543 1543 1542 1542 1541 1541 1541 1541 1542 1542 1543 1545 1547 1549 1551 1553 1554 1556 1557 1558 1559 1559 1560 1560 1560 1560 1559 1559 1559 1558 1558 1557 1556 1555 1554 1553 1552 1551
1545 1544 1543 1542 1541 1541 1542 1542 1542 1541 1541 1541 1541 1541 1541 1540 1539 1539 1539 1540 1541 1542 1544 1546 1548 1550 1552 1553 1555 1556 1557 1558 1558 1558 1558 1558 1558 1558 1557 1557 1556 1555 1555 1553 1552 1551 1549 1548 1547
1544 1544 1543 1540 1539 1540 1542 1543 1540 1539 1540 1540 1540 1540 1540 1539 1539 1538 1539 1539 1540 1541 1543 1545 1547 1549 1551 1553 1554 1555 1556 1557 1557 1557 1557 1557 1556 1556 1555 1555 1554 1553 1552 1550 1549 1547 1546 1544 1543
1545 1548 1550 1541 1539 1539 1544 1546 1537 1537 1537 1538 1539 1539 1539 1539 1539 1538 1539 1539 1540 1541 1542 1544 1546 1549 1550 1552 1553 1554 1555 1555 1555 1555 1555 1555 1555 1554 1553 1552 1551 1550 1549 1547 1545 1544 1542 1540 1538
1551 1555 1551 1544 1538 1539 1542 1543 1535 1535 1535 1536 1538 1538 1538 1538 1538 1539 1539 1539 1540 1541 1542 1544 1546 1548 1550 1551 1552 1553 1553 1554 1554 1554 1553 1553 1552 1552 1550 1549 1548 1547 1545 1543 1542 1540 1538 1535 1533
1554 1552 1550 1547 1539 1539 1541 1539 1534 1534 1533 1534 1535 1537 1537 1537 1538 1538 1539 1539 1540 1541 1542 1544 1545 1547 1549 1550 1551 1552 1552 1552 1552 1552 1551 1551 1550 1549 1547 1546 1544 1543 1541 1539 1537 1535 1533 1531 1528
1546 1548 1548 1544 1536 1538 1539 1536 1532 1530 1531 1532 1533 1534 1535 1536 1537 1538 1539 1539 1540 1541 1542 1543 1544 1546 1547 1548 1549 1550 1550 1550 1550 1550 1549 1548 1547 1546 1544 1542 1541 1539 1537 1535 1533 1530 1528 1526 1524
1544 1546 1546 1541 1535 1537 1537 1534 1527 1525 1525 1525 1527 1530 1532 1534 1535 1537 1538 1539 1540 1541 1542 1543 1544 1545 1546 1547 1548 1548 1548 1548 1548 1548 1547 1546 1544 1542 1541 1539 1537 1535 1532 1530 1529 1526 1523 1521 1520
1542 1544 1543 1542 1538 1535 1537 1535 1526 1522 1521 1523 1524 1526 1528 1530 1532 1534 1536 1538 1539 1540 1541 1542 1543 1544 1545 1546 1546 1547 1547 1546 1546 1545 1544 1543 1541 1539 1537 1535 1533 1531 1528 1526 1524 1522 1519 1516 1514
1544 1537 1538 1539 1544 1548 1542 1549 1529 1522 1521 1521 1522 1523 1525 1528 1530 1532 1534 1536 1538 1539 1540 1541 1542 1543 1544 1544 1545 1545 1544 1544 1543 1542 1541 1539 1538 1536 1534 1531 1529 1526 1524 1522 1519 1517 1514 1511 1508
1537 1534 1536 1537 1542 1548 1545 1547 1531 1522 1522 1518 1518 1519 1521 1524 1527 1529 1532 1534 1536 1538 1539 1540 1541 1542 1542 1543 1543 1543 1542 1542 1541 1539 1538 1536 1534 1532 1530 1527 1524 1522 1519 1517 1514 1512 1509 1506 1503
1532 1536 1541 1547 1550 1555 1544 1548 1534 1523 1513 1511 1512 1515 1518 1521 1525 1528 1530 1533 1535 1536 1538 1539 1540 1541 1541 1541 1541 1541 1540 1539 1538 1536 1534 1532 1530 1528 1525 1523 1520 1517 1514 1511 1509 1506 1503 1500 1497
1534 1545 1556 1553 1559 1553 1538 1540 1526 1507 1504 1503 1505 1509 1514 1518 1521 1524 1527 1530 1532 1534 1536 1537 1538 1539 1539 1539 1539 1538 1537 1536 1535 1533 1530 1528 1525 1523 1520 1518 1515 1512 1509 1506 1502 1499 1496 1493 1490
1535 1540 1554 1556 1556 1547 1533 1534 1515 1503 1499 1498 1501 1506 1511 1515 1518 1521 1524 1527 1529 1532 1534 1535 1536 1537 1537 1537 1536 1536 1535 1533 1531 1529 1527 1524 1521 1518 1515 1512 1509 1506 1503 1499 1496 1492 1489 1485 1482
1534 1538 1536 1546 1546 1548 1537 1524 1509 1501 1499 1499 1501 1505 1508 1512 1515 1518 1521 1524 1527 1529 1531 1532 1533 1534 1534 1534 1534 1533 1531 1530 1527 1525 1523 1520 1516 1513 1510 1507 1503 1500 1496 1493 1489 1484 1481 1478 1474
1524 1529 1540 1545 1549 1550 1539 1527 1516 1504 1502 1501 1502 1503 1505 1509 1512 1515 1518 1521 1524 1526 1528 1530 1531 1531 1531 1531 1530 1529 1528 1526 1523 1521 1518 1515 1511 1508 1504 1500 1497 1493 1489 1485 1481 1477 1473 1469 1466
1526 1528 1531 1538 1542 1547 1544 1527 1503 1499 1497 1498 1498 1499 1502 1505 1508 1511 1515 1518 1521 1523 1525 1526 1527 1527 1528 1527 1526 1525 1523 1521 1519 1516 1513 1509 1506 1502 1498 1494 1490 1486 1482 1478 1473 1469 1465 1461 1457
1518 1520 1527 1536 1536 1539 1541 1524 1495 1494 1493 1494 1496 1498 1500 1502 1505 1508 1512 1515 1517 1519 1521 1522 1523 1524 1524 1523 1522 1521 1518 1516 1513 1510 1507 1504 1500 1496 1492 1488 1483 1479 1474 1470 1465 1461 1456 1452 1448